Total_Precipitation_Accumulation
0.29 0.38 0.41 0.44 0.50 0.54 0.56 0.60 0.60 0.58 0.63 0.60 0.48 0.44 0.45 0.42 0.33 0.25 0.13 0.06 0.04 0.02 0.03 0.03 0.03 0.03 0.04 0.05 0.09 0.14 0.21 0.29 0.38 0.49 0.60 0.72 0.80 0.90
0.43 0.50 0.52 0.55 0.58 0.55 0.57 0.61 0.62 0.63 0.62 0.52 0.41 0.42 0.39 0.29 0.23 0.17 0.09 0.05 0.03 0.02 0.01 0.01 0.02 0.04 0.04 0.03 0.03 0.03 0.05 0.07 0.10 0.16 0.25 0.37 0.49 0.64
0.55 0.61 0.65 0.67 0.66 0.58 0.56 0.55 0.56 0.62 0.54 0.38 0.30 0.30 0.27 0.21 0.17 0.12 0.07 0.04 0.03 0.03 0.02 0.01 0.01 0.02 0.03 0.03 0.02 0.02 0.03 0.04 0.05 0.06 0.09 0.14 0.18 0.26
0.59 0.69 0.72 0.66 0.58 0.53 0.51 0.51 0.53 0.58 0.50 0.34 0.28 0.26 0.24 0.22 0.19 0.15 0.10 0.06 0.05 0.06 0.04 0.02 0.02 0.02 0.01 0.01 0.01 0.01 0.01 0.02 0.02 0.03 0.06 0.09 0.10 0.10
0.60 0.60 0.58 0.58 0.52 0.46 0.42 0.39 0.42 0.52 0.47 0.32 0.27 0.23 0.23 0.23 0.20 0.17 0.13 0.10 0.06 0.06 0.07 0.06 0.05 0.02 0.01 0.01 0.01 0.01 0.01 0.01 0.02 0.03 0.04 0.08 0.09 0.09
0.51 0.47 0.44 0.41 0.44 0.43 0.37 0.33 0.34 0.35 0.33 0.28 0.24 0.24 0.24 0.23 0.19 0.17 0.14 0.10 0.06 0.04 0.05 0.09 0.08 0.03 0.01 0.00 0.00 0.00 0.01 0.01 0.03 0.04 0.04 0.05 0.11 0.17
0.37 0.30 0.28 0.32 0.35 0.37 0.33 0.29 0.28 0.27 0.26 0.25 0.22 0.23 0.25 0.25 0.20 0.14 0.12 0.10 0.06 0.04 0.03 0.04 0.04 0.02 0.01 0.00 0.00 0.00 0.01 0.01 0.02 0.02 0.03 0.05 0.09 0.19
0.23 0.18 0.14 0.15 0.19 0.24 0.24 0.22 0.22 0.21 0.22 0.23 0.24 0.23 0.24 0.22 0.18 0.14 0.11 0.07 0.07 0.07 0.07 0.06 0.04 0.02 0.00 0.00 0.00 0.00 0.00 0.01 0.02 0.02 0.02 0.02 0.04 0.15
0.17 0.14 0.08 0.07 0.09 0.08 0.08 0.09 0.11 0.13 0.16 0.20 0.23 0.22 0.21 0.18 0.14 0.15 0.13 0.10 0.07 0.05 0.06 0.05 0.02 0.01 0.00 0.00 0.00 0.00 0.00 0.01 0.02 0.04 0.05 0.02 0.01 0.04
0.13 0.11 0.08 0.05 0.05 0.04 0.05 0.05 0.06 0.07 0.10 0.15 0.17 0.17 0.15 0.13 0.12 0.13 0.13 0.10 0.07 0.04 0.04 0.04 0.02 0.01 0.01 0.02 0.00 0.00 0.00 0.00 0.01 0.07 0.18 0.20 0.10 0.05
0.14 0.12 0.09 0.06 0.03 0.03 0.04 0.04 0.04 0.05 0.07 0.09 0.11 0.12 0.11 0.09 0.07 0.06 0.06 0.05 0.04 0.04 0.03 0.03 0.02 0.03 0.03 0.03 0.02 0.01 0.00 0.00 0.01 0.06 0.21 0.45 0.51 0.32
0.18 0.15 0.11 0.06 0.03 0.02 0.03 0.03 0.03 0.02 0.03 0.04 0.05 0.05 0.05 0.05 0.04 0.04 0.03 0.02 0.02 0.03 0.02 0.01 0.01 0.02 0.05 0.03 0.02 0.02 0.01 0.00 0.01 0.06 0.25 0.59 0.71 0.63
0.21 0.17 0.13 0.08 0.04 0.02 0.02 0.03 0.02 0.01 0.01 0.02 0.03 0.03 0.03 0.03 0.03 0.03 0.02 0.02 0.01 0.01 0.01 0.00 0.01 0.01 0.02 0.02 0.01 0.01 0.01 0.01 0.01 0.03 0.12 0.40 0.68 0.71
0.30 0.22 0.16 0.11 0.07 0.03 0.02 0.02 0.01 0.01 0.01 0.01 0.01 0.02 0.02 0.02 0.02 0.02 0.01 0.01 0.01 0.01 0.00 0.00 0.00 0.00 0.01 0.01 0.01 0.01 0.02 0.01 0.03 0.04 0.05 0.14 0.32 0.61
0.39 0.34 0.23 0.15 0.10 0.06 0.02 0.01 0.01 0.00 0.01 0.01 0.01 0.01 0.01 0.01 0.01 0.01 0.00 0.00 0.00 0.00 0.00 0.00 0.00 0.00 0.00 0.01 0.02 0.02 0.02 0.01 0.02 0.05 0.07 0.10 0.21 0.39
0.47 0.41 0.33 0.23 0.16 0.08 0.04 0.02 0.01 0.00 0.00 0.00 0.00 0.00 0.00 0.00 0.00 0.00 0.00 0.00 0.00 0.00 0.00 0.00 0.00 0.00 0.00 0.00 0.00 0.01 0.01 0.01 0.01 0.03 0.07 0.13 0.23 0.32
0.55 0.52 0.43 0.33 0.23 0.11 0.05 0.02 0.01 0.00 0.00 0.00 0.00 0.00 0.00 0.00 0.00 0.00 0.00 0.00 0.00 0.00 0.00 0.00 0.00 0.00 0.00 0.00 0.00 0.00 0.00 0.00 0.00 0.01 0.01 0.05 0.15 0.21
0.62 0.60 0.46 0.34 0.24 0.11 0.04 0.02 0.01 0.01 0.01 0.00 0.00 0.00 0.00 0.00 0.00 0.00 0.00 0.00 0.00 0.00 0.00 0.00 0.00 0.00 0.00 0.00 0.00 0.00 0.00 0.00 0.00 0.00 0.00 0.00 0.03 0.10
0.53 0.53 0.41 0.31 0.21 0.09 0.03 0.01 0.01 0.01 0.00 0.00 0.00 0.00 0.00 0.00 0.00 0.00 0.00 0.00 0.00 0.00 0.00 0.00 0.00 0.00 0.00 0.00 0.00 0.00 0.00 0.00 0.00 0.00 0.00 0.00 0.01 0.02
0.42 0.41 0.32 0.24 0.16 0.07 0.03 0.01 0.00 0.00 0.00 0.00 0.00 0.00 0.00 0.00 0.00 0.00 0.00 0.00 0.00 0.00 0.00 0.00 0.00 0.00 0.00 0.00 0.00 0.00 0.00 0.00 0.00 0.00 0.00 0.00 0.00 0.00
0.32 0.29 0.22 0.16 0.10 0.04 0.01 0.01 0.00 0.00 0.00 0.00 0.00 0.00 0.00 0.00 0.00 0.00 0.00 0.00 0.00 0.00 0.00 0.00 0.00 0.00 0.00 0.00 0.00 0.00 0.00 0.00 0.00 0.00 0.00 0.00 0.00 0.00
0.22 0.18 0.13 0.09 0.05 0.02 0.01 0.00 0.00 0.00 0.00 0.00 0.00 0.00 0.00 0.00 0.00 0.00 0.00 0.00 0.00 0.00 0.00 0.00 0.00 0.00 0.00 0.00 0.00 0.00 0.00 0.00 0.00 0.00 0.00 0.00 0.00 0.00
0.14 0.09 0.06 0.03 0.02 0.00 0.00 0.00 0.00 0.00 0.00 0.00 0.00 0.00 0.00 0.00 0.00 0.00 0.00 0.00 0.00 0.00 0.00 0.00 0.00 0.00 0.00 0.00 0.00 0.00 0.00 0.00 0.00 0.00 0.00 0.00 0.00 0.00